Regional Weather Roundup
Issued by NWS

Home | Current Version | Previous Version | Text Only | Print | Product List | Glossary Off
Versions: 1 2 3 4 5 6 7 8 9 10 11 12 13 14 15 16 17 18 19 20 21 22 23 24 25 26 27 28 29 30 31 32 33 34 35 36 37 38 39 40 41 42 43 44 45 46 47 48 49 50

000
ASUS43 KDTX 052210
RWRMI
MICHIGAN HOURLY REGIONAL WEATHER ROUNDUP
NATIONAL WEATHER SERVICE DETROIT/PONTIAC MI
ISSUED BY NATIONAL WEATHER SERVICE GRAND RAPIDS MI
500 PM EST MON DEC 05 2016

NOTE: "FAIR" INDICATES FEW OR NO CLOUDS BELOW 12,000 FEET WITH NO
SIGNIFICANT WEATHER AND/OR OBSTRUCTION TO VISIBILITY.

MIZ047>049-052>055-059>063-066>070-074>076-081>083-052300-
SOUTHEAST LOWER MICHIGAN

CITY           SKY/WX    TMP DP  RH WIND       PRES   REMARKS
ADRIAN         CLOUDY    35  29  78 SW10      30.08S WCI  27
ALMA           CLOUDY    38  33  80 SW10G17   30.04R WCI  31
ANN ARBOR      MOCLDY    34  28  79 SW6       30.07R WCI  29
BAD AXE        CLOUDY    37  32  79 SW7       30.03R WCI  32
DETROIT CITY   PTCLDY    38  31  76 SW10      30.07R WCI  31
DETROIT        MOCLDY    38  29  70 SW13      30.09R WCI  30
FLINT          MOCLDY    37  30  75 SW9       30.06R WCI  30
GROSSE ILE     CLOUDY    38  29  71 W10       30.08R WCI  30
HILLSDALE      CLOUDY    32  28  86 S6        30.04F WCI  26
HOWELL         CLOUDY    36  29  75 SW7       30.05R WCI  31

CITY           SKY/WX    TMP DP  RH WIND       PRES   REMARKS
JACKSON        CLOUDY    34  27  75 S8        30.06S WCI  27
LANSING        CLOUDY    35  28  75 SW13      30.06R WCI  26
MASON          CLOUDY    34  30  83 SW5       30.06S WCI  30
MONROE         CLOUDY    37  30  77 W8        30.08S WCI  31
MT. CLEMENS    MOCLDY    39  31  71 SW10      30.04R WCI  32
PONTIAC        MOCLDY    38  29  70 SW9       30.04R WCI  31
PORT HOPE        N/A     39  31  72 VRB6      30.00R WCI  35
PORT HURON     MOCLDY    37  30  75 CALM      30.05R
TRI CITIES     MOCLDY    39  33  79 S10       30.03R WCI  32
YPSILANTI      MOCLDY    38  30  73 SW13      30.08R WCI  30
$$
MIZ043>046-050>051-056>058-064>065-071>073-077>080-052300-
SOUTHWEST LOWER MICHIGAN

CITY           SKY/WX    TMP DP  RH WIND       PRES   REMARKS
BATTLE CREEK   CLOUDY    34  30  85 S7        30.05F WCI  28
BENTON HARBOR  CLOUDY    34  30  85 SE5       30.04R WCI  30
BIG RAPIDS     CLOUDY    40  31  70 SW6       29.99R
COLDWATER      CLOUDY    33  29  85 SW6       30.05F WCI  28
HOLLAND        CLOUDY    35  30  82 S8        30.04S WCI  29
GRAND RAPIDS   MOCLDY    36  30  79 S9        30.04R WCI  29
KALAMAZOO      CLOUDY    34  28  79 S9        30.05F WCI  27
MARSHALL       CLOUDY    33  28  82 S6        30.05F WCI  28
MOUNT PLEASANT MOCLDY    38  31  75 SW6       30.00R WCI  34
MUSKEGON       CLOUDY    40  33  76 S14G21    30.02R WCI  32
STURGIS        CLOUDY    33  29  85 SE7       30.03F WCI  27
$$
MIZ016>042-052300-
NORTHERN LOWER MICHIGAN

CITY           SKY/WX    TMP DP  RH WIND       PRES   REMARKS
ALPENA         PTCLDY    40  28  62 SW5       29.96R
BEAVER ISLAND  MOCLDY    38  32  77 W12       29.93R WCI  31
BELLAIRE       PTCLDY    39  32  75 CALM      29.96R
CADILLAC       CLEAR     35  30  81 SW6       29.96R WCI  30
CHARLEVOIX     MOCLDY    39  32  76 SW6       29.97R WCI  35
GAYLORD        PTCLDY    35  28  75 SW5       29.93R WCI  31
HOUGHTON LAKE  CLEAR     37  29  72 SW8       29.97R WCI  31
MANISTEE       CLOUDY    39  32  76 S8        29.98R WCI  33
OSCODA         MOCLDY    38  31  75 SW6       29.98R WCI  34
PELLSTON       MOCLDY    39  29  67 W3        29.94R
TRAVERSE CITY  PTCLDY    40  30  67 SW5       29.96R
LUDINGTON      CLOUDY    40  35  81 S10G20    29.97F WCI  34
$$
MIZ007>008-015-052300-
EASTERN UPPER MICHIGAN

CITY           SKY/WX    TMP DP  RH WIND       PRES   REMARKS
KINROSS        CLEAR     33  31  92 SW3       29.91R
MACKINAC ISLAN CLOUDY    37  29  72 W16       29.93R WCI  28
NEWBERRY       CLOUDY    35  33  93 S5        29.91R WCI  31
S. S. MARIE    PTCLDY    36  32  85 SW7       29.89R WCI  30
$$
MIZ004>006-011>014-085-052300-
CENTRAL UPPER MICHIGAN

CITY           SKY/WX    TMP DP  RH WIND       PRES   REMARKS
MANISTIQUE     MOCLDY    37  30  78 SW5       29.92R WCI  33
ESCANABA       CLEAR     36  31  82 SW5       29.92R WCI  32
MENOMINEE      CLOUDY    35  31  85 SW8       29.93S WCI  29
SAWYER-GWINN   CLEAR     34  30  86 S7        29.87R WCI  28
$$
MIZ001>003-009>011-084-052300-
WESTERN UPPER MICHIGAN

CITY           SKY/WX    TMP DP  RH WIND       PRES   REMARKS
IRON MOUNTAIN  CLEAR     35  29  78 S9        29.86R WCI  28
HOUGHTON       MOCLDY    35  28  75 SW5       29.83R WCI  31
COPPER HARBOR    N/A     36  33  89 SW7       29.85R WCI  30
IRONWOOD       MOCLDY    37  29  72 E5        29.79S WCI  33
$$

ABBREVIATIONS USED IN REMARKS
   TC - TEMPERATURE IN CELSIUS
  WCI - WIND CHILL INDEX
   HX - HEAT INDEX
  VSB - VISIBILITY





USA.gov is the U.S. government's official web portal to all federal, state and local government web resources and services.